Regional Weather Roundup
Issued by NWS Pendleton, OR

Home | Current Version | Previous Version | Text Only | Print | Product List | Glossary On
Versions: 1 2 3 4 5 6 7 8 9 10 11 12 13 14 15 16 17 18 19 20 21 22 23 24 25 26 27 28 29 30 31 32 33 34 35 36 37 38 39 40 41 42 43 44 45 46 47 48 49 50
000
ASUS46 KPDT 120525
RWRPDT
PENDLETON REGIONAL WEATHER ROUNDUP
NATIONAL WEATHER SERVICE PENDLETON OREGON
1000 PM PDT TUE MAY 11 2021

NOTE: FAIR INDICATES FEW OR NO CLOUDS BELOW 12,000 FEET WITH NO
SIGNIFICANT WEATHER AND/OR OBSTRUCTIONS TO VISIBILITY.

# INDICATES UNOFFICIAL STATION AND DATA

WAZ520-120610-
EAST SLOPES OF WASHINGTON CASCADES

CITY            SKY/WX      TMP DP  RH  WIND    PRES   REMARKS
#BULLFROG       N/A         57  38  49  W5      N/A
#EASTON DOT     N/A         51  39  63  CALM    N/A
#ELK HTS DOT    N/A         56  56  100 SW2     N/A
#GLENWOOD       N/A         55  43  64  CALM    30.07R
#NELSON 3SW     N/A         49  38  66  CALM    30.30R
#NILE           N/A         58  40  51  W2      29.46R
#TROUT LAKE 1NE N/A         56  43  62  CALM    30.07R
#TROUT LAKE 1E  N/A         54  43  66  CALM    30.12R
$$

WAZ521-120610-
SIMCOE HIGHLANDS

CITY            SKY/WX      TMP DP  RH  WIND    PRES   REMARKS
#SATUS PASS DOT N/A         49  33  54  NW1     N/A
#CENTERVILLE 1SWN/A         52  39  61  CALM    30.01R
#LYLE 6NE       N/A         62  46  56  CALM    30.05R
#PITT 4SE       N/A         55  43  64  CALM    30.08R
$$

WAZ026-120610-
KITTITAS VALLEY

CITY            SKY/WX      TMP DP  RH  WIND    PRES   REMARKS
ELLENSBURG AP   FAIR        60  37  42  NW12    30.10R
#ELLENSBURG CWU N/A         60  41  49  NW3     30.01R
#ELLENSBURG 3NE N/A         58  40  51  N9      28.17R
#ELLENSBURG 1E  N/A         60  40  47  CALM    30.09R
#KITTITAS 3S    N/A         59  42  53  NW2     30.07R
#MANASTASH RDG  N/A         56  37  49  N9      N/A
#ROCKY CYN DOT  N/A         56  40  55  NW8     N/A
#RYEGRASS DOT   N/A         55  32  41  W9      N/A
$$

WAZ027-120610-
YAKIMA VALLEY

CITY            SKY/WX      TMP DP  RH  WIND    PRES   REMARKS
SUNNYSIDE AP    HVY RAIN    58  39  49  NE7     30.07R
YAKIMA AIRPORT  CLOUDY      64  37  37  CALM    30.08R
YAKIMA-VAGABOND FAIR        63  34  34  E13     30.07R
#MABTON         N/A         65  39  38  E1      30.05R
#NACHES 2SW     N/A         60  40  47  W3      30.09R
#OUTLOOK DOT    N/A         63  32  31  CALM    N/A
#PARKER DOT     N/A         67  31  26  CALM    N/A
#TERRACE HTS    N/A         63  38  39  N1      30.02R
#TOPPENISH      N/A         63  38  39  CALM    29.97R
#I82 S UMTANUM RN/A         61  36  39  N12     N/A
#ZILLAH DOT     N/A         60  34  37  E7      N/A
$$

WAZ028-120610-
LOWER COLUMBIA BASIN...WASHINGTON

CITY            SKY/WX      TMP DP  RH  WIND    PRES   REMARKS
PASCO           FAIR        59  47  64  N6      30.07R
PROSSER AWOS    N/A         57  39  51  N6      30.10R
RICHLAND AWOS   FAIR        61  38  42  CALM    30.06R
#BASIN CITY 5SW N/A         62  42  48  CALM    30.06R
#BENTON CITY    N/A         64  38  38  CALM    29.96R
#CONNELL 5N     N/A         57  34  42  CALM    30.06R
#CONNELL 5NW    N/A         59  40  49  CALM    30.01R
#ELTOPIA 6NW    N/A         65  38  37  CALM    29.05R
#KAHLOTUS       N/A         62  33  34  CALM    30.06R
#KENNEWICK 3S   N/A         64  36  35  CALM    30.04S
#PROSSER DOT    N/A         61  40  46  CALM    N/A
#SAGEMOOR 2W    N/A         64  40  41  E1      29.91R
#TOUCHET 2S     N/A         52  43  71  CALM    30.03R
$$

WAZ029-120610-
FOOTHILLS OF THE BLUES...WASHINGTON

CITY            SKY/WX      TMP DP  RH  WIND    PRES   REMARKS
WALLA WALLA AP  FAIR        59  35  40  E8      30.08R
#CLYDE 6NW      N/A         50  33  52  CALM    30.05R
#DELANEY DOT    N/A         58  31  36  E6      N/A
#LOWDEN 2SE     N/A         54  42  64  E1      30.03R
#PRESCOTT       N/A         53  37  54  CALM    30.06R
#WHITMAN MISSIONN/A         57  43  59  E2      30.04R
$$

WAZ030-120610-
BLUE MOUNTAINS...WASHINGTON

CITY            SKY/WX      TMP DP  RH  WIND    PRES   REMARKS
$$

ORZ009-041-WAZ024-120610-
COLUMBIA RIVER GORGE

CITY            SKY/WX      TMP DP  RH  WIND    PRES   REMARKS
HOOD RIVER AP   FAIR        61  46  58  CALM    30.08R
THE DALLES AP   FAIR        68  44  42  CALM    30.04R
#CELILO DOT     N/A         69  44  40  SW1     N/A
#LYLE           N/A         68  46  45  N3      30.06R
#MARYHILL       N/A         65  36  34  CALM    N/A
#RUFUS DOT      N/A         65  34  31  S6      N/A

$$

ORZ510-120610-
NORTH CENTRAL OREGON

CITY            SKY/WX      TMP DP  RH  WIND    PRES   REMARKS
#ANTELOPE       N/A         56  34  43  CALM    29.93R
#COW CYN RST AREN/A         59  22  24  N6      N/A
#DUFUR          N/A         54  39  57  CALM    30.03R
#DUFUR 9E       N/A         61  43  51  CALM    30.11R
#GRASS VALLEY 1SN/A         58  26  29  CALM    30.01R
#KENT DOT       N/A         55  23  29  N8      N/A
#MORO SCHOOL    N/A         62  38  41  W5      29.94R
#SHANIKO 5WSW   N/A         57  24  28  N13     N/A
#WAPANITIA AIRPON/A         57  38  49  W2      30.07R
#WASCO DOT      N/A         50  37  61  E1      N/A
#WASCO 5NE      N/A         57  37  47  SW7     30.03R
$$

ORZ511-120610-
CENTRAL OREGON

CITY            SKY/WX      TMP DP  RH  WIND    PRES   REMARKS
BEND AIRPORT    FAIR        57  27  31  N7      30.13R
MADRAS AIRPORT  FAIR        52  30  43  NW8     30.12R
PRINEVILLE AP   MOCLDY      59  28  30  N8      30.11R
REDMOND AIRPORT FAIR        60  29  31  N9      30.10R
#ASHWOOD SCHOOL N/A         58  32  37  CALM    30.05R
#BEND-KIM LN    N/A         53  32  45  W3      30.01R
#CULVER         N/A         56  31  38  N2      29.53R
#PRINEVILLE     N/A         54  34  47  CALM    30.11R
#WARM SPRINGS   N/A         65  42  43  CALM    29.90R

$$


ORZ509-120610-
EAST SLOPES OF OREGON CASCADES

CITY            SKY/WX      TMP DP  RH  WIND    PRES   REMARKS
SISTERS AWOS    N/A         57  34  42  CALM    30.08R
SUNRIVER AWOS   CLOUDY      46  32  58  N5      30.18R
#BLUE BOX PASS  N/A         46  N/A N/A CALM    N/A
#LAVA BUTTE DOT N/A         50  19  29  CALM    N/A
#SISTERS ODOT   N/A         50  33  52  SE1     N/A
#TUMALO 3W      N/A         58  28  32  CALM    29.91R
#WANOGA BUTTE D N/A         46  20  35  N5      N/A

$$

ORZ044-120610-
LOWER COLUMBIA BASIN...OREGON

CITY            SKY/WX      TMP DP  RH  WIND    PRES   REMARKS
HERMISTON       FAIR        59  38  45  E6      30.06R
#BOARDMAN SCHOOLN/A         66  40  38  CALM    30.00R
#ECHO 8SW       N/A         52  42  69  SW1     30.07R
#I-84 EX 198 DOTN/A         61  35  38  N9      N/A
#IONE SCHOOL    N/A         58  34  40  CALM    30.06R
#UMATILLA       N/A         63  40  43  E1      29.97R
$$

ORZ507-120610-
NORTHERN FOOTHILLS OF THE BLUES

CITY            SKY/WX      TMP DP  RH  WIND    PRES   REMARKS
PENDLETON AIRPT FAIR        55  31  40  E7      30.09R
#ATHENA         N/A         49  37  63  CALM    30.11R
#CAYUSE         N/A         55  36  49  E6      30.05R
#HELIX SCHOOL   N/A         54  33  45  CALM    30.08R
#HELIX 3N       N/A         53  31  43  CALM    30.11R
#HOLDMAN 5SE    N/A         55  33  43  CALM    30.08R
#HOLDMAN 6E     N/A         59  32  36  CALM    29.86R
#M-FREEWATER 5SEN/A         56  39  53  NW3     30.08R
#PDT SUNRIDGE   N/A         55  35  47  CALM    30.05R
#PENDLETON 6SE  N/A         59  34  39  E1      30.02R
#TUTUILLA       N/A         47  36  65  CALM    30.13S
#UMAPINE 2E     N/A         52  43  71  CALM    30.05R
#WESTON SCHOOL  N/A         54  32  43  CALM    29.79R

$$

ORZ508-120610-
SOUTHERN FOOTHILLS OF THE BLUES

CITY            SKY/WX      TMP DP  RH  WIND    PRES   REMARKS
#HEPPNER EOC    N/A         58  32  37  CALM    30.00R
#HEPPNER 4NE    N/A         54  31  41  E3      30.06R
#OLEX 4N        N/A         61  34  36  CALM    30.04R
#RUGGS 2SW      N/A         56  31  38  S3      30.13R

$$

ORZ502-503-120610-
BLUE MOUNTAINS

CITY            SKY/WX      TMP DP  RH  WIND    PRES   REMARKS
MEACHAM         FAIR        43  32  65  CALM    30.15S
#BATTLE MTN DOT N/A         50  27  41  N1      N/A
#LADD CREEK ODOTN/A         49  34  56  NW3     N/A
#N POWDER DOT   N/A         49  34  56  N6      N/A
#TOLLGATE       N/A         43  31  62  CALM    30.18R
#TROY SCHOOL    N/A         53  41  64  CALM    29.93R
#WESTON 4E      N/A         53  33  46  CALM    30.05R
$$

ORZ505-120610-
JOHN DAY BASIN

CITY            SKY/WX      TMP DP  RH  WIND    PRES   REMARKS
JOHN DAY        FAIR        55  29  37  SE3     30.12R
#DAYVILLE SCHOOLN/A         64  29  27  NW2     30.02R
#MITCHELL 8NW   N/A         58  32  37  CALM    30.07R
#MONUMENT HS    N/A         65  31  28  CALM    29.91R
#MT. VERNON 5SE N/A         51  29  42  CALM    30.13R
#SPRAY SCHOOL   N/A         63  N/A N/A N9      N/A
$$

ORZ506-120610-
OCHOCO AND JOHN DAY HIGHLANDS

CITY            SKY/WX      TMP DP  RH  WIND    PRES   REMARKS
#BUCK CREEK DOT N/A         53  22  29  W5      N/A
#HORSE RIDGE DO N/A         55  21  26  CALM    N/A
#KEYES SMT DOT  N/A         53  30  41  NE1     N/A
#PAULINA ODOT   N/A         59  37  44  N6      N/A
#PRAIRIE CITY   N/A         46  34  63  CALM    30.05R
#SENECA 9NW     N/A         45  29  53  CALM    30.08R
$$

ORZ049-120610-
GRANDE RONDE VALLEY

CITY            SKY/WX      TMP DP  RH  WIND    PRES   REMARKS
LA GRANDE       FAIR        52  35  52  N6      30.12R
#COVE SCHOOL    N/A         51  33  50  W1      30.11R
#ELGIN 1E       N/A         52  37  56  CALM    N/A
#IMBLER SCHOOL  N/A         56  36  47  CALM    30.07R
#ISLAND CITY 4N N/A         58  50  75  CALM    30.11R
#LADD CYN DOT   N/A         53  34  48  SE13    N/A
#UNION 1S       N/A         51  35  54  CALM    30.09R
$$

ORZ050-120610-
WALLOWA COUNTY

CITY            SKY/WX      TMP DP  RH  WIND    PRES   REMARKS
JOSEPH AIRPORT  FAIR        43  30  60  CALM    30.17R
#ENTERPRISE HS  N/A         48  33  56  CALM    30.00R
#IMNAHA SCHOOL  N/A         53  36  52  CALM    30.11R
#JOSEPH 3N      N/A         39  29  67  CALM    30.17R
#LOSTINE        N/A         50  32  50  N2      29.91R
#LOSTINE 3SE    N/A         45  30  55  CALM    30.22R
#WALLOWA SCHOOL N/A         48  34  58  CALM    30.11R



$$


USA.gov is the U.S. government's official web portal to all federal, state and local government web resources and services.